�������l�o���
Date,Time,MP-1(��Sv/h),MP-2(��Sv/h),MP-3(��Sv/h),MP-4(��Sv/h),MP-5(��Sv/h),MP-6(��Sv/h),MP-7(��Sv/h),MP-8(��Sv/h),����,����(m/s),���J
2014/03/15,00:00,2.4,4.3,4.8,4.3,4.5,2.0,2.5,2.7,���k��,4.8,��
2014/03/15,00:10,2.4,4.3,4.8,4.3,4.5,2.0,2.5,2.7,���k��,5.7,��
2014/03/15,00:20,2.4,4.3,4.8,4.3,4.5,2.0,2.5,2.7,���k��,5.7,��
2014/03/15,00:30,2.4,4.3,4.8,4.3,4.5,2.0,2.5,2.7,�k��,5.8,��
2014/03/15,00:40,2.4,4.3,4.8,4.3,4.5,2.0,2.5,2.7,�k��,5.6,��
2014/03/15,00:50,2.4,4.3,4.8,4.3,4.5,2.0,2.5,2.7,�k��,4.2,��
2014/03/15,01:00,2.4,4.3,4.8,4.3,4.5,2.0,2.5,2.7,���k��,5.0,��
2014/03/15,01:10,2.4,4.3,4.8,4.3,4.5,2.0,2.5,2.7,���k��,5.0,��
2014/03/15,01:20,2.4,4.3,4.8,4.3,4.5,2.0,2.5,2.7,���k��,4.6,��
2014/03/15,01:30,2.4,4.3,4.8,4.3,4.5,2.0,2.5,2.7,�k��,3.8,��
2014/03/15,01:40,2.4,4.3,4.8,4.3,4.5,2.0,2.5,2.7,�k��,3.7,��
2014/03/15,01:50,2.4,4.3,4.8,4.3,4.5,2.0,2.5,2.7,�k��,3.8,��
2014/03/15,02:00,2.4,4.3,4.8,4.3,4.5,2.0,2.5,2.7,�k��,3.8,��
2014/03/15,02:10,2.4,4.3,4.8,4.3,4.5,2.0,2.5,2.7,�k��,4.0,��
2014/03/15,02:20,2.4,4.3,4.8,4.3,4.5,2.0,2.5,2.8,�k��,3.9,��
2014/03/15,02:30,2.4,4.3,4.8,4.3,4.5,2.0,2.5,2.7,�k��,5.6,��
2014/03/15,02:40,2.4,4.3,4.8,4.3,4.5,2.0,2.5,2.7,�k��,5.6,��
2014/03/15,02:50,2.4,4.3,4.8,4.3,4.5,2.0,2.5,2.7,�k��,6.4,��
2014/03/15,03:00,2.4,4.3,4.8,4.3,4.5,2.0,2.5,2.7,�k��,5.8,��
2014/03/15,03:10,2.4,4.3,4.8,4.3,4.5,2.0,2.5,2.7,�k��,6.1,��
2014/03/15,03:20,2.4,4.3,4.8,4.3,4.5,2.0,2.5,2.7,�k��,5.5,��
2014/03/15,03:30,2.4,4.3,4.8,4.3,4.5,2.0,2.5,2.7,�k��,4.8,��
2014/03/15,03:40,2.4,4.3,4.8,4.3,4.5,2.0,2.5,2.7,�k��,5.1,��
2014/03/15,03:50,2.4,4.3,4.8,4.3,4.5,2.0,2.5,2.7,�k��,5.3,��
2014/03/15,04:00,2.4,4.3,4.8,4.3,4.5,2.0,2.5,2.7,�k��,5.1,��
2014/03/15,04:10,2.4,4.3,4.8,4.3,4.5,2.0,2.5,2.7,�k��,4.7,��
2014/03/15,04:20,2.4,4.3,4.8,4.3,4.5,2.0,2.5,2.7,�k�k��,4.3,��
2014/03/15,04:30,2.4,4.3,4.8,4.3,4.5,2.0,2.5,2.7,�k��,4.3,��
2014/03/15,04:40,2.4,4.3,4.8,4.3,4.5,2.0,2.5,2.7,�k��,4.4,��
2014/03/15,04:50,2.4,4.3,4.8,4.3,4.5,2.0,2.5,2.7,�k��,4.6,��
2014/03/15,05:00,2.4,4.3,4.8,4.3,4.5,2.0,2.5,2.7,�k��,5.3,��
2014/03/15,05:10,2.4,4.3,4.8,4.3,4.5,2.0,2.5,2.7,�k��,5.6,��
2014/03/15,05:20,2.4,4.3,4.8,4.3,4.5,2.0,2.5,2.7,�k��,5.1,��
2014/03/15,05:30,2.4,4.3,4.8,4.3,4.5,2.0,2.5,2.7,�k��,5.8,��
2014/03/15,05:40,2.4,4.3,4.8,4.3,4.5,2.0,2.5,2.7,�k��,5.5,��
2014/03/15,05:50,2.4,4.3,4.8,4.3,4.5,2.0,2.5,2.7,�k�k��,5.1,��
2014/03/15,06:00,2.4,4.3,4.8,4.3,4.5,2.0,2.5,2.7,�k��,4.4,��
2014/03/15,06:10,2.4,4.3,4.8,4.3,4.5,2.0,2.5,2.7,�k��,3.1,��
2014/03/15,06:20,2.4,4.3,4.8,4.3,4.5,2.0,2.5,2.7,���k��,2.5,��
2014/03/15,06:30,2.4,4.3,4.8,4.3,4.5,2.0,2.5,2.8,���k��,2.1,��
2014/03/15,06:40,2.4,4.3,4.8,4.3,4.5,2.0,2.5,2.7,���k��,2.9,��
2014/03/15,06:50,2.4,4.3,4.8,4.3,4.5,2.0,2.5,2.7,��,1.9,��
2014/03/15,07:00,2.4,4.3,4.8,4.3,4.5,2.0,2.5,2.7,��,1.8,��
2014/03/15,07:10,2.4,4.3,4.8,4.3,4.5,2.0,2.5,2.7,���쐼,1.8,��
2014/03/15,07:20,2.4,4.3,4.8,4.3,4.5,2.0,2.5,2.7,��,1.9,��
2014/03/15,07:30,2.4,4.3,4.8,4.3,4.5,2.0,2.5,2.7,��,1.7,��
2014/03/15,07:40,2.4,4.3,4.8,4.3,4.5,2.0,2.5,2.7,���k��,1.6,��
2014/03/15,07:50,2.4,4.3,4.8,4.3,4.5,2.0,2.5,2.7,���k��,0.8,��
2014/03/15,08:00,2.4,4.3,4.8,4.3,4.5,2.0,2.5,2.7,�k,2.0,��
2014/03/15,08:10,2.4,4.3,4.8,4.3,4.5,2.0,2.5,2.7,�k�k��,1.6,��
2014/03/15,08:20,2.4,4.3,4.8,4.3,4.5,2.0,2.5,2.7,���k��,1.4,��
2014/03/15,08:30,2.4,4.3,4.8,4.3,4.5,2.0,2.5,2.7,���쓌,0.7,��
2014/03/15,08:40,2.4,4.3,4.8,4.3,4.5,2.0,2.5,2.7,��,2.5,��
2014/03/15,08:50,2.4,4.3,4.8,4.3,4.5,2.0,2.5,2.7,���쓌,2.2,��
2014/03/15,09:00,2.4,4.3,4.8,4.3,4.5,2.0,2.5,2.7,���쓌,2.4,��
2014/03/15,09:10,2.4,4.3,4.9,4.3,4.5,2.0,2.5,2.7,���쓌,3.7,��
2014/03/15,09:20,2.4,4.3,4.8,4.3,4.6,2.0,2.5,2.7,���쓌,3.7,��
2014/03/15,09:30,2.4,4.3,4.8,4.3,4.6,2.0,2.5,2.7,���쓌,3.8,��
2014/03/15,09:40,2.4,4.3,4.8,4.3,4.6,2.0,2.5,2.8,��,3.8,��
2014/03/15,09:50,2.4,4.3,4.9,4.3,4.6,2.0,2.5,2.7,���쓌,3.8,��
2014/03/15,10:00,2.4,4.3,4.9,4.3,4.6,2.0,2.5,2.8,���k��,3.3,��
2014/03/15,10:10,2.4,4.3,4.9,4.3,4.6,2.0,2.5,2.8,��,3.1,��
2014/03/15,10:20,2.4,4.3,4.9,4.3,4.6,2.0,2.5,2.8,��,3.5,��
2014/03/15,10:30,2.4,4.3,4.9,4.3,4.6,2.0,2.5,2.8,�쓌,4.3,��
2014/03/15,10:40,2.4,4.3,4.9,4.3,4.6,2.0,2.5,2.7,���쓌,3.8,��
2014/03/15,10:50,2.4,4.3,4.9,4.3,4.6,2.0,2.5,2.7,���쓌,4.2,��
2014/03/15,11:00,2.4,4.3,4.9,4.3,4.6,2.0,2.5,2.8,��,4.6,��
2014/03/15,11:10,2.4,4.3,4.9,4.3,4.6,2.0,2.5,2.8,���쓌,4.0,��
2014/03/15,11:20,2.4,4.3,4.9,4.3,4.6,2.0,2.5,2.8,���쓌,3.7,��
2014/03/15,11:30,2.4,4.3,4.9,4.3,4.6,2.0,2.5,2.7,���쓌,4.4,��
2014/03/15,11:40,2.4,4.3,4.9,4.3,4.6,2.0,2.5,2.8,���쓌,5.1,��
2014/03/15,11:50,2.4,4.3,4.9,4.3,4.6,2.0,2.5,2.8,�쓌,3.7,��
2014/03/15,12:00,2.4,4.3,4.9,4.3,4.6,2.0,2.5,2.8,���쓌,5.2,��
2014/03/15,12:10,2.4,4.3,4.9,4.3,4.6,2.0,2.5,2.8,���쓌,5.3,��
2014/03/15,12:20,2.4,4.3,4.9,4.3,4.6,2.0,2.5,2.8,���쓌,5.4,��
2014/03/15,12:30,2.4,4.3,4.9,4.3,4.6,2.0,2.5,2.8,���쓌,5.8,��
2014/03/15,12:40,2.4,4.3,4.9,4.3,4.6,2.0,2.5,2.8,��,4.1,��
2014/03/15,12:50,2.4,4.4,4.9,4.3,4.6,2.0,2.5,2.8,���쓌,6.3,��
2014/03/15,13:00,2.4,4.3,4.9,4.3,4.6,2.0,2.5,2.8,���쓌,3.7,��
2014/03/15,13:10,2.4,4.3,4.9,4.3,4.6,2.0,2.5,2.8,���쓌,6.4,��
2014/03/15,13:20,2.4,4.3,4.9,4.3,4.6,2.0,2.5,2.8,���쓌,3.9,��
2014/03/15,13:30,2.4,4.3,4.9,4.3,4.6,2.0,2.5,2.7,���쓌,3.6,��
2014/03/15,13:40,2.4,4.4,4.9,4.3,4.6,2.0,2.5,2.8,�쓌,3.5,��
2014/03/15,13:50,2.4,4.3,4.9,4.3,4.6,2.0,2.5,2.8,���쓌,4.4,��
2014/03/15,14:00,2.4,4.3,4.9,4.3,4.6,2.0,2.5,2.8,��쓌,1.9,��
2014/03/15,14:10,2.4,4.4,4.9,4.3,4.6,2.0,2.5,2.8,��쐼,2.5,��
2014/03/15,14:20,2.4,4.4,4.9,4.4,4.6,2.0,2.5,2.8,�쐼,2.5,��
2014/03/15,14:30,2.4,4.4,4.9,4.4,4.6,2.0,2.5,2.8,���쐼,2.2,��
2014/03/15,14:40,2.4,4.4,4.9,4.4,4.6,2.0,2.5,2.8,��,4.9,��
2014/03/15,14:50,2.4,4.4,4.9,4.4,4.6,2.0,2.5,2.8,��,3.8,��
2014/03/15,15:00,2.4,4.4,4.9,4.4,4.6,2.0,2.5,2.8,��,6.4,��
2014/03/15,15:10,2.4,4.4,4.9,4.4,4.6,2.0,2.5,2.8,��,6.3,��
2014/03/15,15:20,2.4,4.4,4.9,4.4,4.6,2.0,2.5,2.8,��,8.3,��
2014/03/15,15:30,2.4,4.4,4.9,4.4,4.6,2.0,2.5,2.8,��,8.6,��
2014/03/15,15:40,2.4,4.4,4.9,4.4,4.6,2.0,2.5,2.8,���쐼,9.0,��
2014/03/15,15:50,2.4,4.4,4.9,4.4,4.6,2.0,2.5,2.8,��,9.3,��
2014/03/15,16:00,2.4,4.4,4.9,4.4,4.6,2.0,2.5,2.8,��,9.4,��
2014/03/15,16:10,2.4,4.4,4.9,4.4,4.6,2.0,2.5,2.8,��,7.7,��
2014/03/15,16:20,2.4,4.4,4.9,4.4,4.6,2.0,2.5,2.8,��,8.5,��
2014/03/15,16:30,2.4,4.4,4.9,4.4,4.6,2.0,2.5,2.8,��,8.5,��
2014/03/15,16:40,2.4,4.4,4.9,4.4,4.6,2.0,2.5,2.8,��,8.3,��
2014/03/15,16:50,2.4,4.4,4.9,4.4,4.6,2.0,2.5,2.8,��,8.8,��
2014/03/15,17:00,2.4,4.4,4.9,4.4,4.6,2.0,2.5,2.8,���k��,8.9,��
2014/03/15,17:10,2.4,4.4,4.9,4.4,4.6,2.0,2.5,2.8,���k��,6.0,��
2014/03/15,17:20,2.4,4.4,4.9,4.4,4.6,2.0,2.5,2.8,���k��,5.0,��
2014/03/15,17:30,2.4,4.4,4.9,4.4,4.6,2.0,2.5,2.8,��,6.9,��
2014/03/15,17:40,2.4,4.4,4.9,4.4,4.6,2.0,2.5,2.8,��,6.3,��
2014/03/15,17:50,2.4,4.4,4.9,4.4,4.6,2.0,2.5,2.8,���쐼,6.0,��
2014/03/15,18:00,2.4,4.4,4.9,4.4,4.6,2.0,2.5,2.8,���쐼,6.0,��
2014/03/15,18:10,2.4,4.4,4.9,4.4,4.6,2.0,2.5,2.8,�쐼,4.7,��
2014/03/15,18:20,2.4,4.4,4.9,4.4,4.6,2.0,2.5,2.8,�쐼,3.8,��
2014/03/15,18:30,2.4,4.4,4.9,4.4,4.6,2.0,2.5,2.8,���쐼,4.7,��
2014/03/15,18:40,2.4,4.4,4.9,4.4,4.6,2.0,2.5,2.8,�쐼,2.5,��
2014/03/15,18:50,2.4,4.4,4.9,4.4,4.6,2.0,2.5,2.8,���쐼,5.4,��
2014/03/15,19:00,2.4,4.4,4.9,4.4,4.6,2.0,2.5,2.8,���쐼,4.2,��
2014/03/15,19:10,2.4,4.3,4.9,4.4,4.6,2.0,2.5,2.8,���쐼,4.8,��
2014/03/15,19:20,2.4,4.3,4.9,4.4,4.6,2.0,2.5,2.8,���쐼,2.7,��
2014/03/15,19:30,2.4,4.3,4.9,4.4,4.6,2.0,2.5,2.8,���쐼,3.4,��
2014/03/15,19:40,2.4,4.3,4.9,4.4,4.6,2.0,2.5,2.8,���쐼,3.0,��
2014/03/15,19:50,2.4,4.3,4.9,4.4,4.6,2.0,2.5,2.8,���쐼,3.7,��
2014/03/15,20:00,2.4,4.3,4.9,4.4,4.6,2.0,2.5,2.8,�쐼,4.5,��
2014/03/15,20:10,2.4,4.4,4.9,4.4,4.6,2.0,2.5,2.8,�쐼,5.4,��
2014/03/15,20:20,2.4,4.4,4.9,4.4,4.6,2.0,2.5,2.8,�쐼,7.1,��
2014/03/15,20:30,2.4,4.4,4.9,4.4,4.6,2.0,2.5,2.8,�쐼,7.4,��
2014/03/15,20:40,2.4,4.4,4.9,4.3,4.6,2.0,2.5,2.8,���쐼,7.1,��
2014/03/15,20:50,2.4,4.3,4.9,4.4,4.6,2.0,2.5,2.8,���쐼,8.6,��
2014/03/15,21:00,2.4,4.3,4.9,4.4,4.6,2.0,2.5,2.8,���쐼,7.7,��
2014/03/15,21:10,2.4,4.3,4.9,4.3,4.6,2.0,2.5,2.8,��,8.0,��
2014/03/15,21:20,2.4,4.4,4.9,4.4,4.6,2.0,2.5,2.8,��,6.9,��
2014/03/15,21:30,2.4,4.4,4.9,4.4,4.6,2.0,2.5,2.8,��,6.7,��
2014/03/15,21:40,2.4,4.4,4.9,4.4,4.6,2.0,2.5,2.8,��,6.8,��
2014/03/15,21:50,2.4,4.3,4.9,4.3,4.6,2.0,2.5,2.8,��,7.4,��
2014/03/15,22:00,2.4,4.3,4.9,4.4,4.6,2.0,2.5,2.8,��,6.8,��
2014/03/15,22:10,2.4,4.3,4.9,4.3,4.6,2.0,2.5,2.8,��,6.4,��
2014/03/15,22:20,2.4,4.4,4.9,4.3,4.6,2.0,2.5,2.8,��,7.1,��
2014/03/15,22:30,2.4,4.3,4.9,4.3,4.6,2.0,2.5,2.8,��,6.6,��
2014/03/15,22:40,2.4,4.3,4.9,4.4,4.6,2.0,2.5,2.8,��,6.7,��
2014/03/15,22:50,2.4,4.3,4.9,4.4,4.6,2.0,2.5,2.8,��,6.0,��
2014/03/15,23:00,2.4,4.3,4.9,4.3,4.6,2.0,2.5,2.8,��,5.6,��
2014/03/15,23:10,2.4,4.3,4.9,4.3,4.6,2.0,2.5,2.8,��,4.7,��
2014/03/15,23:20,2.4,4.3,4.9,4.3,4.6,2.0,2.5,2.8,��,4.8,��
2014/03/15,23:30,2.4,4.3,4.9,4.3,4.6,2.0,2.5,2.8,��,3.7,��
2014/03/15,23:40,2.4,4.3,4.9,4.3,4.6,2.0,2.5,2.8,���쐼,2.6,��
2014/03/15,23:50,2.4,4.3,4.9,4.3,4.6,2.0,2.5,2.8,���쐼,1.8,��
